Location: Newark
(12.4436°N, 0.6167°W)
Time: 19:50:46
(UTC+00:00)

deb Explorer IX - Pass Details

Date: 12 December 2019
Orbit: 548 x 1101 km, 38.8° (Epoch: 21 January)

Event Time Altitude Azimuth Distance (km) Brightness Sun altitude
Rises 11:55:48 0° 207° (SSW) 2,731 ? 54.5°
Reaches altitude 10° 11:58:14 10° 194° (SSW) 1,876 ? 54.5°
Maximum altitude 12:01:51 27° 136° (SE) 1,191 ? 54.5°
Drops below altitude 10° 12:05:50 10° 79° (E) 2,076 ? 54.4°
Sets 12:08:40 0° 67° (ENE) 3,089 ? 54.3°
